Flag for Germany Weather past 2 weeks in Nürtingen, Baden-Württemberg, Germany

Now
75 °F

Thundershowers. Broken clouds.


Feels Like: 77 °F
Forecast: 59 / 69 °F
Wind: 12 mph from North

Location: Stuttgart-Echterdingen

Current Time: Jul 28, 2014 at 7:57:02 PM

Latest Report: Jul 28, 2014 at 7:20 PM


Visibility: N/A

Pressure: 29.77 "Hg

Humidity: 65%

Dew point: 63 °F

Location of NürtingenLocation

Historic Weather in Nürtingen — Graph

°F

Nürtingen temperature yesterday

Maximum temperature yesterday: 79 °F (at 5:20 PM)
Minimum temperature yesterday: 61 °F (at 5:50 AM)
Average temperature yesterday: 70 °F

Past Weeks' High & Low Weather Summary

 TemperatureHumidityPressure
High91 °F (Jul 19, 3:50 PM)100% (Jul 20, 11:50 PM)30.21 "Hg (Jul 20, 11:50 PM)
Low57 °F (Jul 16, 2:50 AM)22% (Jul 18, 2:50 PM)29.77 "Hg (Jul 28, 6:20 PM)
Average70 °F69%30.00 "Hg
* Reported Jul 13 6:20 PM — Jul 28 6:50 PM, Nürtingen, Weather by CustomWeather, © 2014

Note: Actual official high and low records may vary slightly from our data, if they occured in-between our weather recording intervals... More about our weather records

Advertising

Nürtingen weather history for previous 24 hours

 ConditionsComfort  
Time TempWeatherWind HumidityBarometerVisibility
6:50 PM
Jul 28
75 °FBroken clouds.12 mph61%29.80 "HgN/A
6:20 PM79 °FScattered clouds.8 mph54%29.77 "HgN/A
5:50 PM79 °FSunny.7 mph54%29.80 "Hg10 mi
5:20 PM81 °FScattered clouds.7 mph51%29.80 "HgN/A
4:50 PM81 °FScattered clouds.5 mph45%29.80 "HgN/A
4:20 PM81 °FScattered clouds.8 mph51%29.83 "HgN/A
3:50 PM79 °FScattered clouds.7 mph54%29.83 "HgN/A
3:20 PM79 °FScattered clouds.5 mph51%29.83 "HgN/A
2:50 PM79 °FScattered clouds.7 mph54%29.86 "HgN/A
2:20 PM79 °FScattered clouds.6 mph54%29.86 "HgN/A
1:50 PM79 °FPassing clouds.5 mph61%29.86 "HgN/A
1:20 PM79 °FPassing clouds.3 mph54%29.89 "HgN/A
12:50 PM79 °FScattered clouds.2 mph58%29.89 "HgN/A
12:20 PM77 °FScattered clouds.2 mph65%29.89 "HgN/A
11:50 AM75 °FScattered clouds.5 mph61%29.89 "HgN/A
11:20 AM73 °FPartly sunny.5 mph65%29.92 "HgN/A
10:50 AM73 °FPartly sunny.2 mph74%29.92 "HgN/A
10:20 AM72 °FPartly sunny.3 mph78%29.92 "HgN/A
9:50 AM68 °FSunny.3 mph83%29.92 "Hg10 mi
9:20 AM68 °FSunny.2 mph83%29.95 "Hg10 mi
8:50 AM66 °FSunny.2 mph88%29.95 "Hg10 mi
8:20 AM64 °FSunny.3 mph94%29.95 "Hg10 mi
7:50 AM64 °FSunny.3 mph94%29.95 "Hg10 mi
7:20 AM63 °FSunny.2 mph94%29.95 "Hg10 mi
6:50 AM61 °FClear.1 mph94%29.95 "Hg10 mi
6:20 AM61 °FClear.1 mph94%29.95 "Hg10 mi
5:50 AM59 °FClear.2 mph94%29.95 "Hg10 mi
5:20 AM63 °FClear.3 mph88%29.95 "Hg10 mi
4:20 AM63 °FClear.2 mph88%29.95 "Hg10 mi
3:50 AM63 °FClear.2 mph88%29.95 "Hg10 mi
3:20 AM64 °FClear.5 mph83%29.98 "Hg10 mi
2:50 AM64 °FClear.5 mph83%29.98 "Hg10 mi
2:20 AM64 °FClear.2 mph83%29.98 "Hg10 mi
1:50 AM64 °FClear.2 mph83%29.98 "Hg10 mi
1:20 AM66 °FClear.3 mph83%30.01 "Hg10 mi
12:50 AM66 °FClear.3 mph83%30.01 "Hg10 mi
12:20 AM64 °FPassing clouds.2 mph83%30.01 "HgN/A
11:50 PM
Jul 27
66 °FPassing clouds.3 mph78%30.01 "HgN/A
11:20 PM66 °FScattered showers. Passing clouds.5 mph78%30.01 "HgN/A
10:50 PM68 °FScattered showers. Passing clouds.3 mph73%30.01 "HgN/A
10:20 PM68 °FScattered showers. Partly cloudy.7 mph78%30.01 "HgN/A
9:50 PM70 °FScattered showers. Broken clouds.6 mph73%30.01 "HgN/A
9:20 PM72 °FScattered showers. Broken clouds.9 mph69%30.01 "HgN/A
8:50 PM73 °FScattered showers. Broken clouds.5 mph65%30.01 "HgN/A
8:20 PM73 °FSprinkles. Broken clouds.12 mph57%30.01 "HgN/A
7:50 PM77 °FSprinkles. Broken clouds.3 mph54%29.98 "HgN/A
7:20 PM77 °FPartly sunny.6 mph54%29.98 "HgN/A
Weather by CustomWeather, © 2014

See weather overviewHow to use our weather pages